Flag for Germany Weather past 2 weeks in Rheine, North Rhine-Westphalia, Germany

Now
55 °F

Cool.


Feels Like: 54 °F
Forecast: 52 / 74 °F
Wind: 6 mph from Southwest

Location: Rheine-Bentlage

Current Time: Aug 28, 2015 at 4:29:25 AM

Latest Report: Aug 28, 2015 at 3:20 AM


Visibility: N/A

Pressure: 29.92 "Hg

Humidity: 100%

Dew point: 55 °F

Location of RheineLocation

Historic Weather in Rheine — Graph

°F

Rheine temperature yesterday

Maximum temperature yesterday: 70 °F (at 12:20 AM)
Minimum temperature yesterday: 57 °F (at 5:20 PM)
Average temperature yesterday: 63 °F

Past Weeks' High & Low Weather Summary

 TemperatureHumidityPressure
High82 °F (Aug 13, 5:20 PM)100% (Aug 16, 4:20 AM)30.27 "Hg (Aug 16, 4:20 AM)
Low50 °F (Aug 19, 6:20 AM)34% (Aug 22, 4:20 PM)29.50 "Hg (Aug 24, 6:20 PM)
Average65 °F78%29.92 "Hg
* Reported Aug 13 3:20 AM — Aug 28 3:20 AM, Rheine, Weather by CustomWeather, © 2015

Note: Actual official high and low records may vary slightly from our data, if they occured in-between our weather recording intervals... More about our weather records

Advertising

Rheine weather history for previous 24 hours

 ConditionsComfort  
Time TempWeatherWind HumidityBarometerVisibility
3:20 AM
Fri, Aug 28
55 °FCool.6 mph100%29.92 "HgN/A
2:20 AM55 °FCool.5 mph100%29.89 "HgN/A
1:20 AM55 °FCool.6 mph100%29.89 "HgN/A
12:20 AM55 °FCool.3 mph100%29.89 "HgN/A
11:20 PM
Thu, Aug 27
57 °FCool.3 mph94%29.86 "HgN/A
10:20 PM57 °FCool.5 mph94%29.86 "HgN/A
9:20 PM57 °FCool.3 mph94%29.86 "HgN/A
8:20 PM57 °FCool.2 mph94%29.83 "HgN/A
7:20 PM57 °FCool.3 mph94%29.86 "HgN/A
6:20 PM57 °FCool.5 mph94%29.86 "HgN/A
5:20 PM57 °FCool.8 mph88%29.86 "HgN/A
4:20 PM61 °FCool.6 mph88%29.83 "HgN/A
3:20 PM61 °FLight rain. Broken clouds.6 mph88%29.83 "Hg5 mi
2:20 PM63 °FLight rain. Broken clouds.15 mph68%29.83 "HgN/A
1:20 PM64 °FLight rain. Broken clouds.6 mph83%29.83 "HgN/A
12:20 PM66 °FPartly sunny.7 mph68%29.83 "HgN/A
11:20 AM64 °FPartly sunny.6 mph68%29.83 "HgN/A
10:20 AM64 °FPartly sunny.9 mph64%29.83 "HgN/A
9:20 AM64 °FBroken clouds.8 mph68%29.80 "HgN/A
8:20 AM66 °FPartly sunny.8 mph73%29.77 "HgN/A
7:20 AM66 °FPassing clouds.7 mph83%29.77 "HgN/A
6:20 AM68 °FPartly cloudy.10 mph78%29.74 "HgN/A
5:20 AM68 °FPartly cloudy.8 mph78%29.74 "HgN/A
4:20 AM68 °FMild.5 mph78%29.74 "HgN/A
Weather by CustomWeather, © 2015

See weather overviewHow to use our weather pages